< < Back
Terminal Aerodrome Forecast


Current Version              Previous Versions:   1  2  3  4  5  6  7  8  9  

Terminal Aerodrome Forecast

263
FTUS42 KMLB 300500
TAFDAB
TAF
KDAB 300538Z 3006/3106 22003KT P6SM SCT150
     FM301400 14005KT P6SM SCT035
     FM301800 10008KT P6SM VCTS SCT040CB BKN250
     FM302100 12005KT P6SM SCT060 BKN100
     FM310000 14003KT P6SM SCT100=

Latest METAR

016
SAUS80 KWBC 310000
MTRDAB
METAR KDAB 302353Z 10005KT 10SM FEW032 FEW250 28/23 A3009 RMK AO2 SLP187
CB DSNT NE SW-NW T02830233 10328 20283 51004


USA.gov is the U.S. government's official web portal to all federal, state and local government web resources and services.